Weather History for NFNA - February, 2013

Change the Weather History Date:

Friday, February 22, 2013

  Actual Average Record
Temperature  
Mean Temperature 81 °F -  
Max Temperature 88 °F - - ()
Min Temperature 74 °F - - ()
Cooling Degree Days 16    
Growing Degree Days 31 (Base 50)    
Moisture  
Dew Point 76 °F    
Average Humidity 86    
Maximum Humidity 100    
Minimum Humidity 54    
Precipitation  
Precipitation 0.04 in - - ()
Sea Level Pressure  
Sea Level Pressure 29.76 in    
Wind  
Wind Speed 2 mph ()    
Max Wind Speed 9 mph    
Max Gust Speed -    
Visibility 7.0 miles    
Events Rain    
T = Trace of Precipitation, MM = Missing Value Source: Averaged Metar Reports

Daily Weather History Graph

Daily Weather History Graph

Search for Another Location

Airport or City:

Trip Planner

Search our weather history database for the weather conditions in past years. The results will help you decide how hot, cold, wet, or windy it might be!

Date:

Astronomy

Feb. 22, 2013 Rise Set
Actual Time 6:02 AM FJT 6:36 PM FJT
Civil Twilight 5:39 AM FJT 6:58 PM FJT
Nautical Twilight 5:13 AM FJT 7:24 PM FJT
Astronomical Twilight 4:47 AM FJT 7:50 PM FJT
Moon 3:46 PM FJT (2/22) 2:31 AM FJT (2/22)
Length of Visible Light 13h 18m
Length of Day
12h 33m
Waxing Gibbous, 85% of the Moon is Illuminated
Feb 22
Waxing Gibbous
Feb 26
Full
Mar 5
Last Quarter
Mar 12
New
Mar 20
First Quarter

Hourly Weather History & Observations

Time (FJT) Temp. Heat Index Dew Point Humidity Pressure Visibility Wind Dir Wind Speed Gust Speed Precip Events Conditions
12:00 AM 75 °F - 75 °F 99% 29.78 in 12 mi Calm Calm - -   Overcast
12:00 AM 75.2 °F - 75.2 °F 100% 29.77 in 6.2 mi Calm Calm - N/A Rain Light Rain Showers
1:00 AM 75.2 °F - 73.4 °F 94% 29.77 in 6.2 mi Calm Calm - N/A   Overcast
2:00 AM 75.2 °F - 75.2 °F 100% 29.74 in 6.2 mi Calm Calm - N/A Rain Light Rain Showers
3:00 AM 75 °F - 75 °F 99% 29.73 in 12 mi Calm Calm - - Rain Light Rain Showers
3:00 AM 75.2 °F - 75.2 °F 100% 29.71 in 6.2 mi Calm Calm - N/A   Overcast
4:00 AM 75.2 °F - 73.4 °F 94% 29.71 in 6.2 mi Calm Calm - N/A   Overcast
5:00 AM 75.2 °F - 75.2 °F 100% 29.71 in 6.2 mi Calm Calm - N/A   Overcast
6:00 AM 75 °F - 74 °F 97% 29.75 in 12 mi Calm Calm - -   Partly Cloudy
6:00 AM 75.2 °F - 75.2 °F 100% 29.74 in 6.2 mi Calm Calm - N/A   Overcast
7:00 AM 75.2 °F - 75.2 °F 100% 29.74 in 6.2 mi Calm Calm - N/A   Overcast
8:00 AM 78.8 °F - 77.0 °F 94% 29.77 in 6.2 mi Calm Calm - N/A   Mostly Cloudy
9:00 AM 78.8 °F - 77.0 °F 94% 29.80 in 6.2 mi ESE 6.9 mph - N/A   Mostly Cloudy
10:00 AM 82.4 °F 92.4 °F 78.8 °F 89% 29.77 in 24.9 mi North 5.8 mph - N/A   Mostly Cloudy
11:00 AM 84.2 °F 94.1 °F 77.0 °F 79% 29.77 in 6.2 mi NNW 8.1 mph - N/A   Mostly Cloudy
12:00 PM 87 °F - 77 °F 65% 29.78 in 31 mi NNW 9.2 mph - -   Partly Cloudy
12:00 PM 86.0 °F 96.9 °F 77.0 °F 74% 29.77 in 31.1 mi NNW 9.2 mph - N/A   Mostly Cloudy
1:00 PM 86.0 °F 95.1 °F 75.2 °F 70% 29.74 in 31.1 mi ENE 5.8 mph - N/A   Mostly Cloudy
2:00 PM 86.0 °F 95.1 °F 75.2 °F 70% 29.74 in 31.1 mi ENE 5.8 mph - N/A   Mostly Cloudy
3:00 PM 88 °F - 73 °F 54% 29.73 in 31 mi NE 5.8 mph - -   Partly Cloudy
3:00 PM 87.8 °F 97.6 °F 75.2 °F 66% 29.71 in 6.2 mi NE 5.8 mph - N/A   Mostly Cloudy
4:00 PM 86.0 °F 95.1 °F 75.2 °F 70% 29.71 in 6.2 mi NE 5.8 mph - N/A   Mostly Cloudy
5:00 PM 82.4 °F 89.5 °F 75.2 °F 79% 29.71 in 6.2 mi NE 5.8 mph - N/A   Mostly Cloudy
6:00 PM 82 °F - 75 °F 73% 29.75 in 31 mi Calm Calm - -   Partly Cloudy
6:00 PM 82.4 °F 89.5 °F 75.2 °F 79% 29.74 in 6.2 mi Calm Calm - N/A   Mostly Cloudy
7:00 PM 80.6 °F 86.2 °F 75.2 °F 84% 29.77 in 6.2 mi Calm Calm - N/A   Mostly Cloudy
8:00 PM 78.8 °F - 75.2 °F 89% 29.80 in 6.2 mi Calm Calm - N/A   Mostly Cloudy
9:00 PM 79 °F - 76 °F 89% 29.82 in 31 mi Calm Calm - -   Partly Cloudy
9:00 PM 78.8 °F - 77.0 °F 94% 29.80 in 6.2 mi Calm Calm - N/A   Mostly Cloudy
10:00 PM 78.8 °F - 77.0 °F 94% 29.83 in 6.2 mi Calm Calm - N/A   Mostly Cloudy
11:00 PM 78.8 °F - 75.2 °F 89% 29.80 in 6.2 mi Calm Calm - N/A   Mostly Cloudy